Theta_e
285 285 286 286 286 286 285 285 285 285 286 286 286 286 285 286 286 286 286 286 286 287 287 287 287 287 287 287 287 287 288 288 288 288 288 288 288 288 288 288 288 288 288 288 288 288 288 288 287 287 287 287 288 288 288 289 289 289 290 290 290 290 290 290 290 290 290 290 290 290 290 290 290 290 290 291 291 291 291 292 292 292 292 292 293 294
285 285 285 285 285 285 285 285 285 285 285 285 285 285 285 285 285 285 285 285 285 285 286 286 286 286 286 286 287 287 287 287 287 287 287 287 287 287 287 287 287 287 287 287 287 287 287 287 287 287 287 287 287 287 288 288 289 289 289 289 289 289 289 290 290 290 290 290 290 289 290 290 290 290 290 290 291 291 291 291 291 292 292 292 293 293
285 285 285 284 285 285 284 284 284 285 285 285 285 285 285 285 285 285 284 284 284 284 284 285 285 285 285 286 286 286 286 286 286 286 286 286 286 286 286 286 286 287 287 287 287 287 287 287 287 286 286 286 287 287 287 288 288 288 288 288 289 289 289 289 289 289 289 289 289 289 289 289 289 290 290 290 290 290 291 291 291 291 292 292 292 293
284 284 284 284 284 284 284 284 284 284 284 285 285 285 285 285 284 284 284 284 284 284 284 284 284 284 285 285 285 285 285 285 285 285 285 285 285 285 285 285 286 286 286 286 286 286 286 286 286 286 286 286 286 286 287 287 287 288 288 288 288 288 288 289 289 289 289 289 289 289 289 289 289 289 289 290 290 290 290 290 291 291 291 291 292 292
284 284 284 284 284 284 284 284 284 284 284 284 284 284 284 284 284 284 284 284 284 284 284 284 284 284 284 284 284 284 284 284 284 284 284 284 284 284 285 285 285 285 285 285 285 286 286 286 286 286 285 285 286 286 286 287 287 287 288 288 288 288 288 288 288 288 288 289 288 289 289 289 289 289 289 289 289 290 290 290 290 291 291 291 291 292
284 284 284 284 283 283 284 284 284 284 284 284 284 284 284 284 284 284 284 284 284 284 284 284 284 284 284 284 284 284 284 284 284 284 284 284 284 284 284 284 284 284 285 285 285 285 285 285 285 285 285 285 285 286 286 286 287 287 287 287 288 288 288 288 288 288 288 288 288 288 288 288 289 289 289 289 289 289 290 290 290 290 290 290 291 291
283 283 283 283 283 283 283 283 283 283 283 284 284 284 284 284 284 284 284 284 284 284 284 284 284 284 284 284 283 283 283 283 283 283 283 283 283 284 284 284 284 284 284 284 284 285 285 285 285 285 284 285 285 285 285 286 286 287 287 287 287 288 288 288 288 288 288 288 288 288 288 288 288 288 289 289 289 289 289 289 290 290 290 290 290 291
283 283 283 283 283 283 283 283 283 283 283 283 284 284 284 284 284 284 284 284 284 284 284 284 284 284 284 283 283 283 283 283 284 283 283 283 283 283 283 283 283 283 283 284 284 284 284 284 284 284 284 284 285 285 285 286 286 287 287 287 287 287 288 288 288 288 288 288 288 288 288 288 288 288 288 289 289 289 289 289 289 289 290 290 290 290
283 283 283 283 283 283 283 283 283 283 283 283 283 283 283 283 284 284 284 284 284 284 284 284 284 284 284 283 283 283 283 283 284 284 284 283 283 283 283 283 283 283 283 283 283 283 284 284 284 284 284 284 284 285 285 285 286 286 287 287 287 287 287 287 287 288 288 288 288 288 288 288 288 288 288 288 288 288 288 288 289 289 289 289 289 290
284 283 283 283 283 283 283 283 283 283 283 283 283 283 283 283 283 283 283 283 283 283 283 283 283 283 283 284 283 283 283 283 283 283 283 283 283 283 283 283 283 283 283 283 283 283 283 283 283 283 283 284 284 284 285 285 286 286 287 287 287 287 287 287 287 287 287 288 288 288 288 288 288 288 288 288 288 288 288 288 288 288 288 289 289 289
283 283 283 282 282 283 283 283 283 283 283 283 283 283 283 283 283 283 284 283 283 283 283 283 283 283 283 283 284 284 283 283 283 283 283 283 283 283 283 283 283 283 283 283 283 283 283 283 283 283 283 284 284 284 285 285 286 286 287 287 287 287 287 287 287 287 287 287 287 287 288 288 288 288 288 288 288 288 288 288 288 288 288 288 289 289
283 283 283 282 282 283 283 283 283 283 283 283 283 283 283 283 283 283 284 284 283 283 283 283 283 283 283 283 283 284 284 283 283 283 283 283 283 283 283 283 283 283 283 283 283 283 283 283 283 283 283 284 284 284 285 285 286 286 287 287 287 287 287 287 287 287 287 287 287 287 287 287 287 287 287 287 288 288 288 288 287 287 288 288 288 289
283 283 282 282 282 282 282 283 283 283 283 283 283 283 283 283 283 283 283 283 283 283 283 283 283 283 283 283 283 283 284 284 283 283 283 283 283 283 283 283 283 283 283 283 283 283 283 283 283 283 283 284 284 284 284 285 286 286 286 287 287 286 286 286 287 287 287 287 287 287 287 287 287 287 287 287 287 287 288 287 287 287 288 288 288 288
283 283 282 282 282 282 282 283 283 283 283 283 283 283 283 283 283 283 283 283 283 283 283 283 283 283 283 283 283 283 283 283 284 283 283 283 283 284 284 284 283 283 283 283 283 283 283 283 283 283 283 284 284 284 284 285 285 286 286 286 286 286 286 286 286 286 287 287 287 287 287 287 287 287 287 287 287 287 287 287 287 287 287 288 288 288
283 282 282 282 282 282 282 283 283 283 283 283 283 283 283 283 283 283 283 283 283 283 283 283 283 283 283 283 283 283 283 283 283 284 283 283 283 283 283 284 283 283 283 283 283 283 283 283 283 283 283 284 284 284 284 285 285 286 286 286 286 286 286 286 286 286 286 286 287 287 287 287 287 287 287 287 287 287 287 287 287 287 287 287 288 288
283 283 282 282 282 282 282 283 283 283 283 283 283 283 283 283 283 283 283 283 283 283 283 283 283 283 283 283 283 283 283 283 283 283 283 283 283 283 283 283 283 283 283 283 283 283 283 283 283 283 283 284 284 284 284 285 285 285 286 286 286 286 286 286 286 286 286 286 286 286 286 286 286 286 287 287 287 287 287 287 287 287 287 287 287 287
283 283 283 282 282 282 282 283 283 283 282 282 283 283 283 283 283 283 283 283 283 283 283 283 282 282 283 283 283 282 282 282 282 283 283 283 283 283 283 283 283 283 283 283 283 283 283 283 283 283 283 283 284 284 284 284 285 285 285 285 285 286 286 286 286 286 286 286 286 286 286 286 286 286 286 286 286 286 286 287 287 287 287 287 287 287
283 283 283 283 283 282 283 283 283 283 283 283 283 283 283 283 283 283 283 283 282 282 282 282 282 282 282 283 283 282 282 282 282 282 282 283 283 282 283 283 283 283 283 283 283 283 283 283 283 283 283 283 283 283 284 284 284 285 285 285 285 285 285 286 286 286 286 286 286 286 286 286 286 286 286 286 286 286 286 286 286 287 287 287 287 287
283 283 283 283 283 283 283 283 283 283 283 283 283 283 283 283 283 283 282 282 282 282 282 282 281 281 282 282 283 282 281 281 281 282 282 282 283 282 282 282 282 283 283 283 283 283 283 283 283 283 283 283 283 283 283 284 284 284 284 285 285 285 285 285 285 285 285 285 286 286 286 286 286 286 286 286 286 286 286 286 286 286 286 286 287 287
283 283 283 283 283 283 283 283 283 283 283 283 283 283 283 283 283 282 282 282 282 282 282 282 282 282 282 282 282 282 281 281 281 281 281 282 282 282 282 282 282 282 283 283 283 283 283 283 283 283 283 283 283 283 283 283 283 284 284 284 284 284 285 285 285 285 285 285 285 285 285 285 286 286 286 286 286 286 286 286 286 286 286 286 286 286
283 283 283 283 283 283 283 283 283 283 283 283 283 283 283 283 283 282 282 282 282 282 282 282 282 282 282 282 282 282 281 281 281 281 281 282 282 282 282 282 282 282 282 283 283 283 283 283 283 283 283 283 283 283 283 283 283 283 283 283 283 284 284 284 284 285 285 285 285 285 285 285 285 285 285 286 286 286 285 286 286 286 286 286 286 286
283 283 283 283 283 283 283 283 283 283 283 283 283 283 283 283 283 283 283 282 282 282 282 282 282 282 282 282 282 282 281 281 281 281 281 281 282 282 282 281 281 281 282 282 283 283 283 283 283 283 283 283 283 282 282 282 282 282 283 283 283 283 283 284 284 284 284 284 284 285 285 285 285 285 285 285 285 285 285 285 285 286 286 286 286 286
283 283 283 283 283 283 283 283 283 283 283 284 284 283 283 283 283 283 283 283 282 282 282 282 282 282 282 282 282 282 281 281 281 281 281 281 281 282 281 281 281 281 281 282 282 282 283 283 283 283 283 283 282 282 282 282 282 282 282 282 282 283 283 283 283 283 284 284 284 284 284 284 285 285 285 285 285 285 285 285 285 285 285 285 285 285
283 283 283 283 283 283 283 283 283 283 284 284 284 284 283 284 284 283 283 283 283 282 282 282 282 282 282 282 282 281 281 281 281 280 281 281 281 281 281 281 280 280 281 281 282 282 282 283 283 282 282 282 282 282 282 282 282 282 282 282 282 282 282 282 282 283 283 283 284 284 284 284 284 284 285 285 285 285 285 285 285 285 285 285 285 285
283 283 283 283 283 284 284 284 284 284 284 284 284 284 284 284 284 284 284 283 283 283 282 282 282 282 282 281 281 281 281 281 280 280 280 280 280 280 281 280 280 280 280 281 282 282 282 282 282 282 282 282 282 282 282 282 282 282 282 282 282 282 282 282 282 282 283 283 283 283 283 283 284 284 284 284 284 284 285 285 285 285 285 285 285 284
283 283 283 283 283 284 284 284 284 284 284 284 284 284 283 283 283 283 283 283 283 282 282 282 281 281 281 281 281 281 281 281 280 280 280 280 280 280 280 280 280 280 280 281 281 281 282 282 282 282 281 281 281 281 281 282 282 282 282 282 282 282 282 282 282 282 282 282 282 282 283 283 283 283 284 284 284 284 284 284 284 285 284 284 284 284
283 283 283 283 283 284 284 284 284 284 284 284 284 284 284 284 283 283 283 283 282 282 282 281 281 281 281 281 281 281 280 280 280 280 280 280 280 280 280 280 280 279 279 280 281 281 281 281 282 281 281 281 281 281 281 281 281 281 281 281 281 281 281 281 281 281 281 281 282 282 282 282 282 283 283 283 283 284 284 284 284 284 284 284 283 283
283 283 283 283 283 283 283 283 283 283 283 284 284 284 284 283 283 283 282 282 282 282 281 281 280 280 280 280 280 280 280 280 280 280 280 280 280 280 280 279 279 279 279 279 280 281 281 281 281 281 281 280 280 281 281 281 281 281 281 281 281 281 281 281 281 281 281 281 281 282 282 282 282 282 282 282 283 283 283 284 284 284 284 283 283 282
283 283 283 282 282 282 282 282 282 282 282 283 283 283 283 283 283 282 282 282 281 281 281 280 280 280 280 280 280 280 280 280 280 280 279 280 279 279 279 279 278 278 278 279 279 280 281 281 281 281 280 280 280 280 281 281 281 281 280 280 280 281 281 281 281 281 281 281 281 281 281 281 281 282 282 282 282 283 283 283 283 283 283 283 282 282
282 282 282 282 281 281 281 281 281 281 281 281 282 282 282 282 282 281 281 281 281 281 280 280 280 280 279 279 279 280 280 280 280 279 279 279 279 279 279 279 278 278 278 278 278 279 280 280 281 280 280 280 280 280 280 280 280 280 280 280 280 280 280 281 281 281 281 281 281 281 281 281 281 281 281 281 282 282 283 283 283 283 283 282 282 282
282 282 281 281 281 281 281 281 281 281 281 281 281 281 281 281 281 281 281 280 280 280 280 280 280 279 279 279 278 277 280 280 280 280 279 279 279 279 279 278 278 278 278 277 278 278 278 279 280 280 280 280 280 280 280 280 280 280 280 280 280 280 280 280 280 280 281 281 281 281 281 281 281 281 281 281 281 281 282 282 283 283 282 282 282 282
282 282 282 281 281 281 281 280 280 280 280 280 280 280 280 280 280 280 280 280 280 280 280 280 279 279 279 279 278 278 280 280 280 279 279 279 278 278 278 278 278 278 278 277 277 277 277 278 279 279 279 279 279 279 280 280 280 280 280 280 280 280 280 280 280 280 280 280 280 281 281 281 281 281 281 281 281 281 282 282 282 282 282 282 282 282
282 282 282 282 282 281 281 280 280 280 280 280 280 280 280 280 280 280 280 280 280 280 280 280 279 279 279 279 279 279 279 280 280 279 278 278 278 278 278 278 278 278 277 277 278 277 278 278 278 278 278 279 279 279 279 280 280 280 280 280 280 280 280 280 280 280 280 280 280 280 280 280 280 280 280 280 280 281 281 281 282 282 282 282 282 282
282 282 282 282 282 281 281 280 280 280 280 280 280 280 280 280 280 280 280 280 280 280 280 279 279 279 279 279 278 278 279 279 279 279 278 278 278 278 278 278 278 277 277 277 278 278 278 278 278 278 278 279 279 279 279 280 280 279 279 279 280 280 280 280 280 280 280 280 280 280 280 280 280 280 280 280 280 280 280 281 281 281 281 281 281 282
282 282 282 282 282 282 281 281 280 280 280 280 280 280 280 280 280 280 280 279 279 279 279 279 279 279 279 279 278 278 279 279 279 279 278 278 277 277 277 277 277 277 277 277 277 278 278 278 278 278 278 279 279 279 279 280 279 279 279 279 279 279 280 280 280 280 280 280 280 280 280 280 280 280 280 280 280 280 280 280 280 280 280 281 281 281
282 282 282 282 282 282 281 281 280 280 280 280 280 280 280 280 280 279 279 279 279 279 279 279 279 279 279 279 279 279 279 279 279 278 278 278 277 277 277 277 277 277 277 277 277 278 278 278 278 278 278 278 279 279 279 280 279 279 279 279 279 279 279 279 279 279 279 279 280 280 280 280 279 279 279 279 279 280 280 280 280 280 280 280 280 281
281 281 282 282 282 281 281 280 280 280 280 280 279 279 279 279 279 279 279 279 279 279 279 278 278 278 278 278 278 279 279 279 279 278 278 278 277 277 277 277 277 277 277 277 277 277 277 277 278 278 278 278 278 279 279 279 279 279 279 279 279 279 279 279 279 279 279 279 279 279 279 279 279 279 279 279 279 279 279 279 280 280 280 280 280 280
280 280 281 281 281 281 281 280 280 280 279 279 279 279 279 279 279 279 279 279 279 279 278 278 278 278 278 278 278 278 278 278 278 278 278 278 278 278 277 277 277 277 277 277 277 277 277 277 277 277 278 278 278 278 278 278 278 279 279 279 279 279 279 279 279 279 279 279 279 279 279 279 279 279 279 279 279 279 279 279 280 280 280 280 280 280
280 280 281 281 281 281 280 280 280 279 279 279 279 279 279 279 279 279 279 278 278 278 278 278 278 278 278 278 278 278 278 278 278 278 278 278 278 278 277 277 277 277 277 277 277 277 277 277 277 277 277 278 278 278 278 278 278 278 278 279 279 279 279 279 279 279 279 279 279 279 279 279 279 279 279 279 279 279 279 279 279 280 280 280 280 280
280 281 281 281 281 281 280 280 279 279 279 279 279 279 279 279 279 279 278 278 278 278 278 278 278 278 278 278 278 278 278 278 278 278 278 278 278 278 277 277 277 277 277 277 277 277 277 277 277 277 277 277 277 278 278 278 278 278 278 278 279 279 279 279 279 279 279 279 279 279 279 279 279 279 279 279 278 278 278 279 279 279 279 280 280 280
281 281 281 281 281 280 280 279 279 279 279 279 279 279 279 278 278 278 278 278 278 278 278 278 278 278 278 278 278 278 278 278 278 278 278 278 278 278 277 277 277 277 277 277 277 277 277 277 276 276 277 277 277 277 278 278 278 278 278 278 278 278 278 278 279 279 279 279 279 278 278 278 278 278 278 278 278 278 278 278 279 279 279 279 280 280
281 281 281 281 280 279 279 279 279 279 279 279 278 278 278 278 278 278 278 278 278 278 278 278 278 278 278 278 278 278 278 278 278 278 278 278 278 278 278 277 277 277 277 277 277 277 277 277 277 276 277 277 277 277 277 277 277 277 277 277 277 277 277 278 279 279 278 278 278 278 278 278 278 278 278 278 278 278 278 278 279 279 279 279 280 280
281 281 280 280 279 279 279 279 279 279 278 278 278 278 278 278 278 278 278 278 278 278 278 278 278 278 278 278 278 278 278 278 278 278 278 278 278 278 278 277 277 277 277 277 277 277 277 277 277 276 277 277 277 277 277 277 277 277 277 277 277 277 277 278 278 278 278 278 278 278 278 278 278 278 278 278 278 278 278 278 279 279 279 279 279 280
281 280 280 279 279 279 279 278 279 278 278 278 278 278 278 278 277 277 278 277 277 277 277 277 277 277 277 277 278 278 278 278 278 278 278 278 278 277 277 277 277 277 277 277 277 277 277 277 277 277 277 277 277 276 276 277 277 277 277 277 277 277 277 277 277 277 278 278 278 278 278 278 278 278 278 278 278 278 278 278 279 279 279 279 279 280
280 280 279 279 279 279 278 278 278 278 278 278 278 278 277 277 277 277 277 277 277 277 277 276 276 276 276 277 277 277 277 277 278 278 278 278 278 277 277 277 277 277 277 277 277 277 277 277 276 277 276 276 276 276 276 276 276 276 276 276 277 277 277 277 277 277 277 277 278 278 278 278 278 277 277 278 278 278 278 278 278 279 279 279 280 280
280 279 279 279 278 278 278 278 278 278 278 278 277 277 277 277 277 277 277 277 276 276 276 276 275 276 276 276 276 275 275 276 277 278 278 278 278 278 277 277 277 277 277 277 277 277 277 276 276 276 276 276 276 276 276 276 276 276 276 276 276 276 276 277 277 277 277 277 278 278 278 278 277 277 277 278 278 278 278 278 279 279 279 279 280 280
279 279 279 278 278 278 278 278 278 277 277 277 277 277 277 276 276 276 276 276 276 275 275 275 275 275 275 275 275 274 275 275 275 276 276 277 277 278 277 277 277 277 277 277 277 277 276 276 276 276 276 275 275 275 276 276 276 276 276 276 276 276 276 277 277 277 277 278 278 278 277 277 277 277 277 277 278 278 278 278 279 279 279 279 280 280
279 278 278 278 278 278 277 277 277 277 277 277 276 276 276 276 275 275 275 275 274 274 274 274 274 274 274 274 274 274 274 275 275 274 275 275 275 276 276 276 276 276 276 276 276 276 276 276 276 276 276 275 275 275 276 276 276 276 276 276 276 276 276 277 277 277 277 277 277 277 277 277 277 277 277 277 278 278 278 278 279 279 279 280 280 280
278 278 278 278 278 277 277 277 277 277 276 276 276 275 275 275 275 275 274 274 274 274 274 274 274 274 274 274 274 274 274 274 274 274 274 274 274 274 275 275 275 275 275 275 275 275 275 275 275 276 276 276 275 275 276 276 276 276 276 276 276 276 277 277 277 277 277 277 277 277 277 277 277 277 277 277 278 278 278 279 279 279 280 280 280 280
278 278 278 278 277 277 277 277 277 276 276 276 275 275 275 275 274 274 274 274 274 274 274 274 274 274 274 274 274 274 274 274 274 274 274 275 274 274 275 275 275 275 275 274 274 274 275 275 275 275 276 276 276 276 276 276 276 276 276 276 277 277 277 277 277 277 277 277 277 277 277 277 277 277 277 278 278 278 279 279 279 279 280 280 280 280
278 278 278 278 277 277 277 277 277 276 276 276 275 275 275 275 274 274 274 274 274 274 274 274 273 273 274 274 274 274 274 274 274 274 274 275 274 274 274 275 274 274 274 274 275 275 275 275 275 275 276 276 276 276 277 277 277 277 277 277 277 277 277 277 277 277 277 277 277 276 276 276 277 277 277 278 278 278 279 279 279 279 279 279 280 280
Wind_Speed
13 11 9 7 6 6 6 4 4 4 4 4 4 4 4 4 4 4 4 4 5 5 5 5 5 5 4 3 4 4 4 4 4 5 5 5 5 5 6 6 7 7 7 7 8 8 8 9 9 9 9 9 9 9 10 11 11 12 12 13 13 13 13 14 14 14 15 15 15 16 16 16 16 16 16 16 17 17 17 18 18 18 18 19 19 19
13 11 10 8 7 7 7 6 5 5 5 5 5 5 5 5 5 5 5 5 5 5 4 4 4 5 4 3 4 4 4 3 3 4 4 4 4 4 5 5 6 6 6 7 7 7 8 8 8 8 8 8 9 9 10 11 11 12 12 12 13 13 13 14 14 14 15 15 15 16 16 16 16 16 16 17 17 17 17 18 18 18 19 19 19 19
14 12 11 9 8 8 9 8 6 6 5 6 6 6 6 7 7 7 6 5 5 4 4 4 3 4 4 3 3 4 4 3 3 3 3 3 3 3 4 4 5 5 5 6 6 7 7 8 8 8 8 8 8 8 9 10 11 12 12 12 12 13 13 14 14 14 15 15 15 16 16 16 16 16 16 17 17 17 18 18 18 18 19 19 19 19
15 13 12 10 9 9 9 9 8 7 6 6 7 7 8 8 8 8 7 6 5 5 4 4 3 3 3 2 3 3 3 3 2 2 2 2 2 3 3 4 4 5 5 5 6 6 7 7 8 8 7 7 7 8 8 10 11 11 12 12 12 13 13 13 14 14 15 15 15 15 16 16 16 16 16 17 17 17 18 18 18 18 19 19 19 20
15 14 13 12 11 10 9 9 9 8 7 7 7 8 9 10 10 9 8 7 7 6 6 5 4 4 3 3 2 2 2 2 1 1 1 1 2 2 2 3 4 4 5 5 5 6 6 7 7 7 7 7 7 7 8 9 10 11 11 12 12 12 13 13 14 14 15 15 15 15 16 16 16 16 17 17 17 18 18 18 18 18 18 19 19 20
15 14 13 13 12 11 10 9 9 8 8 8 9 9 10 10 10 9 9 8 8 7 7 6 5 5 4 4 4 3 2 1 1 1 1 1 2 2 2 3 3 3 4 4 4 5 6 6 7 7 6 6 6 6 7 8 10 11 11 12 12 12 13 13 14 14 15 15 15 15 16 16 16 16 17 17 17 17 18 18 18 18 19 19 19 19
17 15 14 13 12 11 11 10 9 9 9 10 10 10 10 10 9 9 8 8 7 7 7 6 6 5 5 5 5 4 3 2 1 1 1 1 2 3 3 3 3 3 3 3 4 4 5 6 6 6 5 5 5 6 6 7 9 11 11 12 12 12 13 13 14 14 15 15 15 16 16 16 16 16 16 17 17 17 18 18 18 18 18 18 19 19
18 16 14 14 13 12 11 11 10 9 9 10 10 10 10 9 9 8 7 7 6 6 6 6 5 5 5 6 5 5 4 3 1 1 1 1 2 3 4 4 4 4 4 3 3 3 4 4 5 5 4 4 4 5 6 7 9 11 11 12 12 12 13 13 14 14 15 15 15 15 16 16 16 16 16 17 17 17 18 18 18 18 18 18 18 19
20 18 15 14 14 13 12 11 11 10 9 9 10 10 10 10 9 8 7 6 5 5 4 4 4 4 5 5 6 6 6 5 3 2 1 1 2 3 4 5 5 5 4 4 3 3 3 3 4 4 4 4 4 4 5 7 9 11 11 12 12 12 13 13 14 14 15 15 15 15 16 16 16 16 16 17 17 17 17 18 18 18 18 18 18 18
20 19 17 15 14 13 13 12 11 11 10 10 10 10 10 9 9 8 7 6 5 5 4 3 3 3 4 4 5 6 7 7 5 4 3 2 2 3 4 5 6 6 5 5 4 3 3 3 3 3 3 3 3 4 5 7 9 11 12 12 12 12 13 13 14 14 15 15 15 15 15 16 16 16 16 17 17 17 17 18 18 18 18 18 18 18
18 18 17 15 13 13 12 12 12 11 10 10 9 9 9 8 8 7 7 6 5 5 4 3 2 3 4 5 5 6 7 8 7 5 3 2 2 3 5 6 7 7 6 6 4 3 3 2 2 2 3 3 3 4 6 8 10 11 12 12 12 12 13 13 14 14 15 15 15 15 15 15 16 16 16 16 17 17 17 17 18 18 18 18 18 18
18 17 16 15 14 12 11 11 11 11 9 8 7 7 7 7 6 5 5 5 4 4 3 3 2 1 3 6 6 6 6 8 8 7 5 2 1 3 4 6 7 7 7 6 5 4 3 2 2 2 2 3 3 4 7 9 10 11 12 12 12 13 13 14 14 14 15 15 15 15 15 15 15 16 16 16 17 17 17 17 17 18 18 18 18 19
18 17 16 15 14 12 11 10 9 8 7 7 6 5 5 4 4 3 2 2 2 2 2 2 2 2 3 5 7 8 8 8 9 9 7 4 2 3 4 6 8 8 8 7 6 5 3 3 2 2 3 3 3 5 8 10 11 12 12 12 12 13 13 14 14 14 14 15 15 15 15 15 15 16 16 16 16 17 17 17 17 18 18 18 19 19
17 16 15 14 13 12 11 10 9 8 7 7 5 5 4 3 2 1 1 1 2 2 1 2 3 2 4 7 9 10 10 10 10 10 9 7 5 4 5 7 8 9 9 8 7 6 4 3 3 3 3 3 4 7 9 10 11 12 12 12 12 13 13 14 14 14 14 14 15 15 15 15 15 16 16 16 16 17 17 17 17 18 18 19 19 19
17 16 14 13 12 12 11 10 9 9 8 6 5 4 3 2 1 0 2 3 3 3 2 2 3 3 4 7 10 12 12 12 12 11 11 9 7 6 6 7 8 9 10 9 8 7 5 4 3 3 4 4 6 8 9 10 11 12 12 12 12 13 13 14 14 14 14 14 15 15 15 15 15 16 16 16 16 17 17 17 17 18 18 19 19 19
17 16 15 15 13 12 10 9 8 7 6 5 4 3 2 2 2 2 3 4 5 5 5 4 3 3 2 5 10 13 14 15 15 14 14 11 9 7 7 8 9 10 10 10 9 8 6 4 3 4 4 5 6 8 9 10 11 12 12 12 12 13 13 14 14 14 14 14 15 15 15 15 16 16 16 16 16 17 17 17 18 18 18 19 19 20
16 16 15 15 13 11 10 9 8 7 6 5 4 3 2 2 3 3 4 5 6 7 8 8 5 1 1 2 7 12 15 16 16 16 16 13 10 8 8 9 10 11 11 11 10 9 7 6 4 4 5 6 7 8 9 10 11 11 12 12 13 13 14 14 14 14 14 14 15 15 15 16 16 16 16 16 16 17 17 17 18 18 19 19 19 20
16 15 14 14 13 11 9 8 7 6 5 4 3 3 2 2 3 4 5 5 6 8 8 8 6 3 4 3 6 10 14 16 16 17 17 14 11 8 9 10 11 12 12 12 11 10 9 7 5 5 5 6 7 8 9 10 11 11 12 12 13 14 14 14 14 14 14 15 15 15 15 16 16 16 16 16 17 17 17 18 18 18 19 19 20 20
14 13 13 13 12 10 9 8 7 6 5 4 3 3 3 3 3 4 5 5 6 6 7 7 6 5 5 7 9 12 14 15 16 17 18 16 11 9 10 12 13 14 14 13 12 11 10 7 5 4 5 6 7 8 9 10 11 11 12 13 13 14 14 14 14 15 15 15 15 16 16 16 16 16 16 16 17 17 17 18 18 19 19 20 20 21
13 11 10 10 10 9 9 7 6 5 4 3 2 2 2 3 3 3 4 5 5 5 6 6 6 6 8 11 13 13 13 14 16 17 17 15 11 9 11 13 15 16 16 15 14 13 11 8 6 4 4 5 7 9 9 10 11 11 12 12 13 13 14 14 15 15 15 16 16 16 16 16 16 16 16 16 17 17 17 18 18 19 19 20 21 21
11 10 8 7 7 8 8 7 5 4 3 2 2 2 2 2 3 3 4 4 5 5 6 6 7 8 10 12 13 13 13 14 15 15 14 12 9 9 11 14 17 18 18 17 16 14 13 10 6 4 3 4 7 9 10 10 11 11 11 12 12 13 13 14 15 15 16 16 16 17 17 17 17 17 17 17 17 17 18 18 19 19 20 20 21 21
8 9 8 6 5 5 6 5 4 3 2 2 2 2 2 2 3 3 4 4 5 5 6 7 8 9 10 12 12 12 12 13 14 14 12 8 7 9 12 16 18 20 20 19 18 17 14 10 6 4 3 4 6 9 10 11 12 12 12 12 12 12 13 14 15 15 16 16 17 17 17 17 17 17 17 17 17 17 18 18 19 19 20 21 21 21
6 7 7 6 6 5 4 4 3 3 2 2 1 1 2 3 3 3 4 5 5 6 8 9 9 10 11 11 11 10 11 12 13 13 9 5 6 10 14 17 19 20 20 21 21 19 16 11 6 3 2 2 5 8 10 12 13 13 12 12 12 13 13 14 15 15 16 16 17 17 17 17 17 17 17 17 18 18 18 18 19 20 20 21 21 21
6 6 6 6 5 4 3 3 2 3 3 2 1 2 2 3 3 5 5 6 7 8 9 10 11 11 11 11 10 9 9 11 13 12 8 4 6 11 15 18 20 20 21 21 22 21 17 11 6 3 2 2 4 7 10 13 14 14 13 13 13 14 14 15 16 16 16 16 16 17 16 17 17 17 17 18 18 18 19 19 19 20 21 21 21 21
6 6 6 6 5 4 4 3 3 2 2 1 1 1 1 2 4 6 7 7 8 9 10 10 10 10 10 9 8 8 10 11 12 11 8 5 8 13 16 18 19 20 21 23 23 21 18 12 6 2 2 2 4 7 11 14 16 16 15 14 14 15 15 16 16 17 17 17 16 16 16 16 16 17 17 18 18 19 19 19 20 20 21 21 21 20
5 5 5 4 4 4 3 3 2 1 1 1 2 2 3 4 5 6 6 6 7 8 9 9 9 9 9 8 7 8 10 11 11 9 8 7 10 14 16 18 19 20 22 24 24 21 17 12 6 2 1 2 5 8 12 15 17 17 16 15 15 16 17 17 17 17 17 17 16 16 15 16 16 17 17 18 18 19 19 20 20 20 21 21 20 20
4 4 3 3 3 3 3 3 3 2 1 1 2 3 4 5 5 5 5 5 6 7 8 8 8 8 8 8 8 10 11 10 8 7 8 10 12 14 16 17 19 20 22 23 23 20 16 10 6 3 2 3 5 9 13 17 18 18 16 16 16 17 18 18 18 18 17 17 16 15 15 15 16 16 17 17 18 19 19 20 20 21 21 20 20 19
5 4 4 4 5 5 5 5 5 4 3 2 2 4 6 5 5 4 5 6 7 7 8 7 7 6 6 7 10 12 11 6 4 6 8 11 12 13 15 17 18 19 20 22 22 20 14 9 5 3 3 5 7 11 16 19 19 18 17 17 18 18 19 19 19 18 18 17 16 15 15 16 16 17 17 18 18 19 19 20 21 21 20 20 19 19
4 5 5 5 6 6 6 6 6 5 4 4 4 6 7 7 6 5 6 7 7 7 7 8 7 6 7 10 12 11 6 2 2 6 10 13 13 13 15 15 16 17 19 20 19 17 11 7 4 3 4 7 10 14 19 20 20 18 18 18 19 19 20 20 20 19 18 17 16 16 16 16 17 17 17 18 18 19 19 20 21 21 20 20 20 20
5 5 6 6 6 6 6 6 6 6 6 6 7 8 8 8 7 7 7 8 8 7 7 8 8 8 8 10 9 6 2 1 3 8 13 13 13 13 14 13 13 15 16 16 14 11 10 7 4 3 6 9 14 18 21 21 19 18 18 18 20 20 21 21 21 20 19 18 17 17 17 17 17 18 18 19 19 19 20 20 21 21 21 21 21 21
4 4 4 5 5 6 6 6 6 6 6 7 8 8 8 8 8 8 8 8 8 7 7 8 8 8 8 6 3 1 2 1 5 12 14 14 12 12 13 12 12 13 13 12 9 7 7 7 5 4 8 13 18 21 21 19 18 17 18 19 20 21 22 22 22 21 20 19 18 18 18 18 18 19 19 20 20 20 20 21 21 21 21 22 22 22
5 4 4 4 5 5 5 6 6 6 6 7 7 7 7 7 7 7 8 8 8 8 8 8 8 9 8 6 4 4 4 5 9 13 13 13 12 11 11 11 11 12 11 9 7 5 4 7 9 12 16 19 20 21 20 18 16 16 18 19 21 23 23 23 22 22 21 20 19 19 19 19 19 20 20 21 21 21 21 21 21 21 22 23 23 22
6 5 4 4 5 5 5 6 6 6 6 6 6 6 7 7 7 7 8 8 8 8 8 8 9 9 9 9 9 9 10 11 12 11 11 11 10 10 11 11 11 11 11 10 8 8 8 11 14 18 20 20 20 19 18 17 16 16 18 20 22 24 24 24 23 23 22 21 21 21 21 21 21 21 21 22 22 22 22 22 22 22 22 22 22 22
7 6 5 5 5 5 6 6 6 6 7 7 7 7 7 7 7 7 8 9 9 9 9 9 9 9 9 10 11 13 13 13 11 10 10 10 10 10 11 11 11 11 12 11 10 11 12 14 16 18 19 21 20 19 17 16 15 16 18 20 22 24 25 25 24 23 23 23 22 22 22 22 22 23 23 23 23 23 23 23 23 22 21 21 21 21
8 7 6 6 5 6 6 6 6 7 7 7 7 7 7 7 8 8 8 9 9 10 10 10 9 9 9 10 11 13 14 12 11 10 11 11 11 11 11 11 11 11 11 12 11 11 12 14 16 17 18 20 21 20 17 16 16 18 20 22 23 23 24 24 24 24 24 24 24 23 23 23 23 24 24 24 24 24 24 24 24 23 22 21 20 20
9 8 7 7 7 7 7 7 7 7 7 7 7 7 8 8 8 8 9 9 9 10 10 10 10 10 10 11 12 13 14 13 12 12 12 12 12 12 12 11 11 11 11 11 12 12 13 15 16 17 17 18 18 19 19 19 20 21 22 23 24 24 24 23 23 23 24 24 24 24 24 23 24 24 25 25 25 25 25 25 25 24 23 22 20 19
10 9 9 8 8 8 8 8 7 7 7 7 7 8 8 8 8 8 9 9 9 9 10 10 10 11 11 12 13 14 14 14 14 13 13 13 13 14 14 14 13 12 11 11 12 12 13 15 16 17 17 16 16 17 20 23 24 24 24 24 25 24 24 23 23 23 24 24 24 23 23 24 24 25 25 25 26 26 27 26 26 25 24 23 22 20
11 11 10 9 9 9 9 8 8 7 7 7 8 8 8 8 8 9 9 9 9 10 10 10 11 11 12 13 14 14 15 15 15 15 15 15 15 15 16 17 16 15 13 13 13 13 13 14 14 15 15 16 17 19 21 22 23 24 25 26 26 24 23 23 23 24 24 24 24 23 23 24 24 25 26 26 27 27 28 28 28 27 25 24 23 22
12 12 12 11 10 9 9 8 8 7 7 7 8 8 8 9 9 10 10 10 10 11 11 11 12 12 13 14 14 15 16 16 16 16 16 15 16 16 17 17 17 17 16 15 14 14 14 14 14 14 15 17 19 21 21 21 22 23 25 26 26 25 24 24 25 25 25 24 24 24 24 25 25 25 25 26 26 27 28 29 29 28 27 27 26 24
13 14 13 12 11 10 9 8 7 7 8 8 8 9 9 10 10 11 11 11 11 11 12 13 13 14 15 15 15 16 16 16 16 16 16 16 16 16 16 16 16 16 15 14 14 14 15 15 15 16 17 17 19 21 21 22 22 22 22 23 23 23 26 27 27 26 24 23 24 24 25 25 25 25 25 25 26 26 27 28 28 28 27 26 25 26
15 15 14 12 10 9 8 8 8 8 8 9 9 9 10 10 11 11 12 12 12 12 13 13 14 15 16 16 16 16 16 15 15 15 15 15 15 15 15 15 15 15 14 14 15 15 16 16 17 17 17 18 19 20 21 22 22 21 21 20 22 24 27 28 26 24 23 23 24 25 25 25 25 25 25 26 26 27 27 27 27 26 25 24 23 24
15 14 13 11 9 8 8 9 9 9 9 9 9 10 10 11 11 12 13 13 13 13 14 14 15 16 16 16 16 15 15 14 14 14 14 14 14 14 14 15 15 15 15 15 16 17 17 17 17 17 18 18 18 19 21 23 23 22 20 20 22 25 26 25 24 23 23 24 25 25 25 25 25 26 27 27 27 28 27 26 25 24 23 23 23 23
14 13 11 10 9 9 9 9 10 10 10 10 10 10 11 11 12 13 13 14 14 15 15 16 17 17 17 17 17 15 14 13 13 13 13 13 13 13 14 14 14 14 15 15 16 18 18 18 17 17 17 17 18 19 21 23 23 23 22 21 21 20 18 21 24 24 25 25 25 25 25 25 26 27 27 27 27 27 26 24 23 22 22 23 24 24
14 12 11 10 10 10 10 10 10 10 10 10 10 10 11 12 12 13 14 15 16 16 16 16 17 17 17 17 17 16 14 13 12 12 11 11 12 12 13 13 13 14 15 15 16 17 18 18 18 18 17 17 17 19 21 22 23 23 23 22 21 19 19 21 24 26 26 26 26 25 25 26 27 28 28 27 26 24 23 22 22 22 22 22 23 24
13 13 12 11 11 10 10 10 10 10 10 10 10 11 11 12 13 14 15 15 16 16 15 15 14 14 14 15 15 15 15 15 13 12 10 10 10 11 12 12 13 13 14 15 16 17 18 19 20 20 19 18 18 19 21 22 22 23 23 22 21 21 22 24 24 25 25 25 25 26 26 27 27 27 26 25 23 22 21 21 21 22 22 23 23 24
14 13 12 11 11 10 10 10 10 10 10 11 11 11 12 12 13 14 15 15 15 14 13 12 12 12 12 13 14 14 15 16 15 13 10 8 8 8 10 11 12 12 13 15 16 17 18 20 21 22 22 21 20 20 21 21 22 22 23 23 22 22 23 24 24 24 24 24 25 26 26 27 26 25 23 23 22 21 21 20 21 21 22 22 23 23
13 12 11 11 10 10 10 10 10 10 11 11 11 11 12 13 13 14 14 14 12 11 10 10 10 10 11 12 13 13 14 15 15 14 12 10 8 7 7 9 10 12 13 14 15 17 18 20 21 22 22 21 20 20 21 22 22 22 23 23 23 23 23 23 23 23 23 24 24 25 26 26 25 23 22 22 22 22 21 20 20 20 21 22 22 23
13 12 11 10 10 10 10 10 10 10 11 11 11 11 12 12 12 12 11 11 10 9 8 8 9 10 11 11 12 12 12 12 13 13 12 11 11 9 8 8 9 11 12 13 15 16 18 19 19 20 21 21 21 21 23 24 24 23 23 23 22 22 23 23 24 24 23 23 23 24 24 23 22 22 22 22 22 22 22 21 21 20 20 21 21 22
12 12 11 11 11 11 11 11 10 10 11 11 10 11 11 10 9 9 9 9 9 9 9 9 9 10 11 11 12 12 11 12 12 12 11 11 10 10 10 10 10 11 12 13 14 15 17 17 17 18 18 20 22 23 24 25 25 24 23 22 22 22 23 23 23 23 22 22 23 23 23 22 21 20 20 21 22 22 22 22 22 21 20 20 21 22
13 12 12 11 11 11 11 11 11 11 11 10 10 10 10 10 9 9 8 8 8 8 9 9 9 10 11 12 12 12 11 11 12 12 11 11 10 10 10 11 11 12 13 13 14 14 14 15 16 16 16 16 18 21 23 24 24 23 22 22 22 22 22 22 22 22 22 22 22 23 23 21 20 20 19 20 21 22 23 23 22 21 21 21 21 22
14 13 13 12 12 12 12 11 11 11 11 11 11 11 10 10 9 9 8 8 8 8 9 9 10 11 12 12 12 12 11 11 11 11 11 10 10 10 10 11 11 12 12 13 13 12 12 12 13 14 15 14 12 13 17 19 21 21 21 21 20 20 20 20 21 22 22 22 22 22 21 21 20 19 18 19 20 21 22 23 23 23 22 22 23 23
Wind_Direction
146 147 150 157 164 164 162 171 184 190 189 188 184 180 179 180 179 179 180 183 190 199 208 214 222 222 202 139 97 82 81 77 72 68 63 58 53 49 45 39 35 30 27 24 22 19 16 13 11 10 11 12 13 13 12 11 11 11 9 7 6 4 3 1 360 358 357 355 354 354 353 353 353 352 352 351 351 351 350 350 349 349 347 346 345 345
149 149 150 157 165 166 161 168 177 185 187 182 178 177 177 174 171 169 172 175 183 191 199 206 214 218 209 170 120 96 91 87 86 82 74 66 57 51 46 39 33 29 24 22 19 16 13 11 8 6 8 9 11 11 11 11 11 9 7 5 4 2 1 360 358 357 355 354 353 353 352 352 352 351 351 351 350 350 350 349 349 348 347 345 344 344
150 150 151 156 162 163 159 164 170 177 180 178 175 175 174 172 167 163 162 163 168 175 180 184 191 199 201 180 138 111 105 105 104 98 89 77 66 55 47 39 31 26 21 18 16 13 10 7 4 3 3 6 8 9 10 9 9 7 5 3 2 1 360 359 357 356 354 353 352 352 352 351 351 350 350 350 349 349 349 348 348 347 346 345 344 343
149 147 150 153 158 160 159 161 165 173 179 178 174 174 173 169 163 158 153 149 147 149 152 153 156 162 173 167 142 123 118 120 121 118 102 90 74 61 51 40 31 24 19 15 12 9 6 3 0 359 360 2 4 5 7 8 7 5 3 2 0 359 359 357 356 354 352 352 352 351 351 350 350 350 349 349 349 348 348 347 346 346 345 344 343 342
146 146 148 151 152 154 159 162 164 170 176 177 174 173 173 172 165 157 150 144 138 134 133 132 130 125 122 117 110 106 109 117 119 113 93 78 65 56 47 39 32 25 18 12 8 5 2 358 356 355 356 358 0 2 4 6 5 4 1 0 359 358 357 356 354 352 351 351 350 350 350 350 349 349 349 348 347 347 346 346 345 345 344 343 343 342
144 145 147 148 148 149 155 159 163 167 170 172 172 173 174 174 169 160 150 144 138 132 127 122 117 111 102 94 84 81 80 83 86 73 46 35 33 33 31 30 27 22 16 10 7 3 359 355 353 351 352 354 357 360 2 4 4 2 360 359 358 357 356 354 352 351 350 350 349 349 349 349 349 348 348 347 346 346 345 344 344 343 343 343 343 342
143 144 146 145 147 149 152 154 158 163 166 168 170 173 175 175 172 165 159 154 147 138 128 120 114 108 100 90 81 74 70 72 77 72 51 34 34 32 29 23 20 15 11 5 3 0 357 352 348 345 345 349 353 358 0 3 3 1 358 357 357 356 354 352 351 350 349 349 349 349 348 348 347 347 346 345 345 344 343 343 342 342 342 342 342 341
141 142 143 142 143 147 150 151 154 160 166 169 170 169 170 172 172 170 169 168 162 150 136 125 118 110 100 90 80 70 60 55 55 61 60 46 39 37 34 27 21 15 8 360 355 353 353 346 341 338 336 340 348 355 1 4 3 0 357 356 355 354 352 350 349 349 348 348 348 348 347 346 346 345 345 344 343 342 342 342 341 341 341 341 341 340
140 139 140 141 143 143 145 148 152 156 160 165 166 164 163 165 169 172 174 174 172 166 154 137 119 106 97 88 77 65 52 42 33 28 28 35 39 37 34 30 25 20 14 3 351 343 344 341 335 330 328 331 343 356 5 8 4 359 356 355 354 353 350 349 348 348 348 347 347 346 346 345 344 343 343 342 341 341 340 340 340 340 340 340 340 340
141 139 138 140 144 146 144 143 147 154 156 158 160 162 161 158 159 163 166 169 174 177 173 159 126 95 80 78 73 65 56 46 33 19 12 18 32 36 33 30 29 25 20 9 357 348 346 341 336 329 325 327 340 0 12 11 5 359 354 353 353 351 349 348 348 347 347 346 345 345 344 343 342 342 341 340 340 339 339 339 339 339 339 339 339 339
137 138 136 136 142 148 149 146 147 152 155 155 158 163 165 160 154 151 151 153 162 175 179 174 148 90 60 49 51 60 59 55 46 32 19 22 46 46 40 36 34 31 25 16 7 0 359 354 345 336 330 332 347 11 20 15 5 357 353 352 351 350 348 347 347 346 345 345 344 343 342 341 341 340 339 339 338 338 338 337 338 337 338 338 338 338
136 137 136 137 140 144 149 151 153 154 155 155 154 158 164 163 158 148 136 133 138 149 161 167 158 98 48 31 28 33 44 48 46 39 27 32 64 63 49 42 39 36 30 22 14 11 15 16 5 350 345 347 4 22 26 16 4 355 352 352 351 349 348 347 346 345 344 343 342 341 340 340 339 338 338 337 337 337 337 337 336 337 337 337 337 337
142 141 140 140 141 142 146 149 152 154 156 156 145 128 124 146 157 149 119 115 109 107 122 148 144 100 40 25 18 15 18 27 35 35 26 21 33 53 46 41 37 35 31 25 20 18 22 27 20 7 360 1 16 28 27 14 1 353 352 352 350 348 347 345 344 343 343 342 341 340 339 338 338 337 337 336 336 336 336 336 336 336 336 337 337 337
144 144 142 140 141 144 147 151 152 152 155 158 150 137 136 148 156 139 75 54 52 52 60 151 153 114 48 27 17 10 6 7 17 27 28 19 14 22 30 33 31 29 26 24 23 20 16 21 24 17 6 8 21 27 24 10 359 353 352 351 349 347 345 344 343 342 341 340 340 339 338 338 337 337 336 336 336 336 336 336 336 336 336 336 336 336
147 146 143 141 141 144 148 153 153 152 156 159 158 152 146 139 141 58 27 29 32 40 66 148 163 143 58 28 15 7 2 357 360 10 22 23 13 5 14 21 24 25 22 20 21 20 13 11 14 14 9 13 22 24 16 4 357 353 351 349 347 345 343 343 342 341 340 339 339 338 338 337 337 336 336 336 336 336 336 336 336 336 336 336 336 336
153 151 147 145 144 147 150 154 152 148 151 155 150 133 105 74 47 11 10 15 18 27 42 73 123 151 90 21 10 4 358 352 351 356 3 15 11 358 3 7 12 17 19 17 17 16 12 8 7 8 9 17 25 23 11 1 355 351 349 347 345 344 343 342 341 340 339 338 338 338 337 337 337 336 336 336 336 336 336 336 336 336 336 335 335 335
156 156 153 149 147 148 154 157 155 149 146 142 137 124 93 54 31 16 12 12 14 21 28 36 41 33 342 11 7 360 353 348 346 347 351 2 4 357 356 358 1 6 11 12 12 11 8 4 1 3 9 19 25 23 12 360 353 349 346 345 344 343 342 341 340 339 338 338 337 337 337 337 337 337 336 336 336 336 336 336 336 336 335 335 335 335
158 159 159 154 151 152 155 156 156 155 150 138 123 106 81 43 25 21 20 17 16 18 19 22 19 355 330 326 354 358 351 346 342 341 343 351 359 358 351 351 353 356 1 5 8 8 5 360 355 357 6 19 25 22 9 357 350 346 345 343 342 342 341 340 339 339 338 338 337 337 337 337 337 337 337 337 336 336 336 336 336 335 335 335 334 334
162 165 165 160 159 158 158 156 155 151 145 133 112 86 63 38 24 23 22 18 14 11 7 2 358 346 327 322 341 353 350 344 339 336 337 344 353 358 348 347 346 347 351 358 3 5 3 357 350 349 1 17 25 23 9 356 349 345 343 342 341 340 340 339 339 338 338 338 338 338 338 338 338 337 337 337 337 336 336 336 336 335 335 334 334 334
165 167 168 168 165 161 158 158 156 149 142 135 112 77 58 29 12 10 13 12 8 0 354 346 339 331 325 330 341 350 348 342 337 335 335 339 347 353 347 344 341 340 343 351 358 1 359 354 346 338 353 16 26 23 12 359 351 347 344 342 341 340 339 339 338 338 338 338 338 338 338 338 338 338 338 337 337 337 336 336 336 335 335 334 334 333
166 162 163 167 166 159 153 155 156 151 141 124 97 72 45 16 357 352 354 356 350 343 340 333 329 328 327 330 339 345 344 340 337 336 335 334 339 346 345 341 338 337 338 344 352 356 356 351 341 327 336 12 25 24 14 3 356 351 347 344 342 340 339 339 338 338 338 338 338 338 338 338 338 338 338 338 337 337 336 336 335 335 335 334 333 333
161 156 157 160 158 152 147 149 145 136 123 91 74 58 32 6 347 340 340 338 332 326 325 323 324 327 328 331 338 343 340 338 337 337 334 324 324 334 340 338 336 335 335 339 345 350 352 349 338 319 319 5 21 21 13 4 358 353 349 346 344 343 342 341 340 339 338 338 338 338 337 338 338 338 338 338 338 338 337 336 336 335 334 334 333 332
148 149 150 150 149 147 143 140 135 119 96 78 55 19 6 349 334 325 323 321 320 321 322 323 323 324 326 330 335 340 339 337 337 337 333 309 307 325 334 336 335 333 333 335 339 344 349 347 336 312 300 349 14 16 9 2 357 353 350 348 347 346 346 344 343 341 339 338 338 337 337 337 337 338 338 338 338 338 338 337 336 335 334 333 332 331
135 138 140 140 140 137 131 122 108 91 80 68 40 15 1 337 313 303 305 309 314 317 319 319 319 320 323 328 334 339 339 336 336 337 334 304 301 319 331 336 335 332 330 331 336 341 345 346 338 311 292 325 0 6 2 357 355 352 350 349 349 348 348 347 346 344 341 339 338 337 337 337 337 337 338 338 338 338 338 338 337 336 334 333 331 330
127 128 130 130 127 118 103 87 76 69 62 42 16 1 341 301 292 294 301 306 310 314 317 315 316 319 321 329 334 337 338 335 333 333 333 310 307 320 332 336 335 332 328 329 333 339 343 345 342 318 295 315 341 351 351 351 350 350 350 350 350 350 349 348 347 345 342 340 338 337 337 337 337 337 337 337 337 337 338 337 337 336 334 332 331 329
117 120 121 120 114 108 98 91 90 77 346 320 306 287 271 271 278 287 296 302 308 312 314 317 321 323 325 330 332 333 334 332 329 326 326 321 320 324 332 335 335 332 328 328 333 339 343 345 343 325 281 298 323 335 341 343 345 347 348 350 350 350 349 348 347 345 343 341 339 338 338 338 338 337 337 337 337 337 337 337 337 336 334 332 330 329
114 115 116 123 132 142 155 163 171 179 191 266 283 273 266 270 278 288 295 299 304 310 316 325 327 326 326 327 327 328 331 329 323 318 322 326 327 328 331 334 334 332 330 329 333 338 342 344 340 321 264 279 306 324 333 337 341 343 346 348 349 349 348 347 346 345 343 341 340 339 339 339 339 338 338 338 338 337 337 337 337 336 334 333 331 330
143 150 159 170 180 187 190 190 190 188 180 174 224 254 261 270 278 281 282 293 303 310 316 323 327 326 322 321 321 324 331 326 312 315 325 331 331 330 331 334 335 335 333 330 332 336 342 345 338 310 269 275 297 315 326 333 337 341 344 345 346 346 346 346 346 344 343 342 341 341 341 341 340 339 339 339 339 338 337 337 337 336 335 334 332 330
205 214 218 221 223 226 227 228 228 222 210 205 225 245 259 269 277 282 286 295 302 308 312 316 320 320 316 316 320 325 334 332 317 327 332 335 333 331 331 335 337 339 338 334 333 336 341 342 329 287 265 275 295 312 323 331 335 339 341 341 341 342 343 344 344 344 344 343 343 343 342 341 341 341 341 341 340 339 338 338 337 337 335 334 331 329
252 256 259 259 257 257 256 255 252 246 236 236 242 251 262 270 276 281 287 293 298 303 307 310 313 315 318 323 326 331 353 76 345 337 335 337 334 331 331 335 338 341 343 342 338 334 331 326 305 259 265 284 301 313 323 330 334 337 337 336 337 338 340 342 343 344 344 344 345 344 343 342 342 342 342 342 341 340 339 339 338 337 334 332 330 328
258 261 267 270 272 272 271 270 266 260 254 253 256 261 267 273 277 281 287 291 296 299 302 304 307 309 314 324 333 336 336 348 333 331 330 333 330 325 329 331 333 337 345 348 344 332 322 317 304 282 291 301 309 316 323 329 332 333 332 331 332 334 337 340 341 343 344 345 345 345 344 343 343 342 342 342 341 340 339 338 337 336 333 331 329 327
247 253 264 275 279 280 279 278 275 272 268 266 268 270 274 278 282 286 289 293 296 298 299 301 302 302 301 291 273 267 281 288 309 320 323 327 324 320 324 326 326 329 336 340 335 320 304 306 305 304 305 308 312 317 323 327 328 328 328 327 328 331 335 338 340 342 343 343 344 344 344 343 343 342 342 341 341 340 338 337 336 335 332 330 328 326
240 247 263 276 283 283 281 279 276 275 274 273 274 277 280 284 287 290 293 294 296 297 297 297 297 297 295 286 277 273 277 289 303 314 317 321 320 318 318 320 321 322 325 325 318 303 289 291 298 304 307 309 311 315 320 323 324 325 325 325 326 329 334 337 339 340 341 341 341 342 343 343 343 342 341 340 340 339 337 336 335 333 331 329 327 325
239 245 260 276 286 288 283 278 275 274 274 275 277 281 284 287 290 291 293 294 295 295 295 292 291 290 290 287 283 281 285 296 308 314 312 315 314 313 313 314 315 317 320 319 315 306 296 294 298 305 309 310 311 313 316 319 321 321 321 323 325 328 332 335 338 339 339 339 339 340 342 342 342 341 340 339 338 337 335 334 333 332 331 328 326 324
247 251 262 277 288 291 287 280 274 272 272 273 277 280 284 286 289 290 290 291 293 293 293 291 288 285 284 283 282 283 288 299 307 308 306 307 308 308 308 307 308 312 315 312 312 310 305 301 302 305 308 310 311 312 314 317 318 318 319 321 324 326 330 334 336 336 336 337 337 339 340 340 340 339 337 337 335 334 332 331 331 331 331 329 326 323
260 262 269 281 290 293 289 283 277 273 271 272 274 277 280 283 285 286 287 288 289 290 290 289 287 285 282 280 281 283 289 296 300 300 300 301 302 301 299 296 299 303 306 305 305 306 305 305 304 305 306 307 309 311 313 315 316 317 319 321 323 325 328 331 333 333 333 334 335 337 338 338 336 335 334 334 332 331 330 330 330 331 331 331 329 325
266 270 277 286 294 295 291 283 277 274 273 273 273 275 278 280 282 283 284 285 286 286 285 284 283 282 281 281 281 283 288 292 294 295 296 297 296 293 290 288 290 292 292 294 297 300 303 304 305 305 304 302 303 306 310 314 316 317 318 320 322 324 326 329 330 331 331 332 333 334 335 334 333 332 332 331 331 330 329 329 330 330 331 330 330 328
265 272 281 290 294 294 289 283 278 275 273 273 273 274 276 278 280 280 281 282 282 283 282 280 278 277 277 277 279 281 284 287 289 291 292 291 289 286 284 284 284 283 282 284 287 291 296 298 301 303 303 300 299 301 305 310 313 315 316 318 320 322 324 326 327 328 329 331 332 332 332 331 331 330 330 330 329 329 328 328 329 330 330 330 329 329
262 272 282 290 293 290 285 281 277 273 269 267 268 271 274 276 277 278 279 280 281 282 282 280 279 277 275 275 275 277 280 282 285 287 288 287 285 283 281 281 281 282 282 283 284 284 284 285 288 292 296 299 301 302 304 306 309 312 315 318 319 320 321 323 324 326 328 330 330 329 329 329 329 329 328 328 327 326 325 325 327 328 329 329 329 328
264 274 283 289 290 286 281 277 273 268 264 265 267 270 273 274 275 276 278 279 281 282 283 282 281 280 278 277 277 277 279 281 283 284 285 284 282 280 277 276 277 280 282 283 283 282 280 278 278 282 286 291 296 299 302 303 305 309 314 316 316 315 317 319 322 324 327 328 327 326 326 327 327 326 325 325 324 323 322 323 324 325 327 326 324 323
270 278 285 289 287 281 275 270 266 264 263 265 267 270 271 273 274 276 278 280 281 282 283 283 282 281 279 278 278 278 279 280 281 281 281 280 278 275 272 271 272 275 278 280 280 280 280 278 278 280 282 286 290 293 295 297 300 304 308 308 307 308 311 315 318 321 324 324 324 324 324 325 324 324 323 322 321 320 320 320 321 322 322 321 319 317
275 281 286 286 281 272 266 262 261 261 263 266 267 268 270 273 276 278 281 282 283 284 285 286 285 284 282 278 276 275 276 276 276 277 277 276 275 271 268 265 266 269 273 276 278 279 280 280 279 279 280 284 288 291 293 294 297 299 301 301 303 307 310 311 315 318 320 320 321 322 322 322 322 321 320 319 318 317 318 318 318 318 317 316 315 314
277 281 283 279 271 263 260 259 260 262 264 266 267 268 271 274 277 280 283 285 287 289 291 292 291 290 288 286 283 279 276 274 274 274 276 275 274 270 266 264 263 264 268 273 277 279 281 281 279 277 278 282 285 287 289 292 295 297 297 297 301 305 307 307 310 314 315 317 318 319 320 320 320 319 318 316 315 316 316 316 316 314 314 314 314 313
276 277 275 270 264 262 261 260 261 263 265 266 267 268 270 274 277 281 284 287 289 292 294 294 294 292 291 290 290 289 285 280 277 276 277 276 273 270 266 263 262 262 263 269 275 280 284 284 281 279 280 282 283 284 286 288 291 293 294 296 297 296 294 298 303 308 311 313 315 316 318 318 318 317 316 315 314 314 313 313 313 312 313 313 313 312
272 272 269 265 262 260 259 261 264 266 268 268 267 267 270 273 277 280 284 287 290 292 294 294 294 295 294 293 294 295 293 290 288 286 282 275 269 265 264 263 262 262 262 265 271 277 282 285 285 284 285 284 283 281 281 284 286 289 291 293 294 293 292 294 299 303 307 309 311 313 316 317 318 317 315 314 313 312 310 310 309 310 311 311 311 310
268 267 265 263 262 262 264 266 268 268 267 266 265 266 269 272 276 279 283 287 290 293 294 294 294 294 292 294 297 300 301 301 302 302 299 287 270 259 258 260 262 264 265 266 269 272 276 280 284 287 289 288 285 281 278 279 282 285 287 291 293 294 295 296 298 301 304 307 309 312 315 317 317 316 314 312 311 309 307 307 307 308 308 309 308 308
265 264 263 263 264 266 268 268 267 265 263 262 262 264 268 272 276 280 284 287 290 292 294 294 292 289 287 291 296 301 304 306 309 311 312 309 298 281 268 265 265 266 269 271 272 272 273 275 277 281 284 286 284 282 279 279 280 282 285 289 292 294 295 296 298 301 305 306 308 311 314 317 317 315 312 310 308 307 306 305 306 306 306 307 307 307
263 262 262 263 265 266 267 266 263 260 259 259 261 263 267 272 277 282 285 287 289 290 291 291 289 287 287 289 292 296 299 302 304 306 309 312 313 310 304 296 290 285 282 281 280 278 277 277 277 276 276 276 276 277 280 281 282 282 284 288 290 292 293 294 298 302 305 307 308 310 313 315 314 312 310 308 306 305 304 305 306 306 306 306 306 306
260 259 260 261 263 264 265 263 261 259 258 260 262 265 269 273 277 280 282 284 285 285 283 284 286 288 288 289 291 293 295 295 296 298 301 305 308 310 309 307 305 302 299 295 291 289 288 286 283 279 275 272 270 271 275 279 282 284 286 288 289 290 291 294 298 302 305 306 308 310 311 311 309 307 306 304 302 302 303 304 305 306 306 306 306 306
256 256 257 259 261 262 263 262 261 259 259 260 262 266 271 274 275 274 275 277 278 278 278 280 283 285 286 288 290 292 292 292 293 294 296 300 303 303 303 305 307 307 306 303 301 299 298 295 292 288 284 277 271 269 271 276 282 285 287 288 289 290 292 295 298 302 305 307 308 309 310 309 307 305 302 300 299 300 302 303 304 305 307 307 307 306
253 254 255 257 259 260 261 260 260 260 260 261 263 265 269 270 270 269 269 270 271 272 274 277 280 282 283 285 288 289 288 288 289 291 293 296 299 300 302 304 307 308 309 308 308 307 307 305 302 299 297 293 281 271 270 276 282 286 287 288 290 293 295 297 299 302 305 307 308 308 308 306 305 303 300 299 298 300 302 303 304 305 307 308 308 307